Location: Central Falls
(41.8900°N, 71.3929°W)
Time: 21:34:19
(UTC+00:00)

Courier 1B Rocket - Pass Details

Date: 05 December 2023
Orbit: 920 x 1202 km, 28.2° (Epoch: 04 March)

Event Time Altitude Azimuth Distance (km) Brightness Sun altitude
Rises 19:34:52 0° 250° (WSW) 3,614 9.1 13.6°
Reaches altitude 10° 19:38:09 10° 236° (SW) 2,637 9.4 13.2°
Maximum altitude 19:42:44 21° 189° (S) 1,930 7.7 12.6°
Drops below altitude 10° 19:47:15 10° 141° (SE) 2,601 7.4 12.0°
Sets 19:50:28 0° 126° (SE) 3,550 7.9 11.6°
